Location: Anumalkud?ru
(16.4847°N, 80.6636°E)
Time: 14:44:35
(UTC+00:00)

Geosat - Pass Details

Date: 11 April 2026
Orbit: 758 x 760 km, 108.0° (Epoch: 11 May)

Event Time Altitude Azimuth Distance (km) Brightness Sun altitude
Rises 13:17:53 0° 32° (NNE) 3,210 7.0 -6.9°
Reaches altitude 10° 13:20:16 10° 39° (NE) 2,284 6.2 -7.5°
Maximum altitude 13:24:59 44° 111° (ESE) 1,043 4.3 -8.6°
Drops below altitude 10° 13:29:42 10° 182° (S) 2,280 6.4 -9.7°
Sets 13:32:03 0° 189° (S) 3,203 7.2 -10.3°
